Location: Franzen
(48.6167°N, 15.3833°E)
Time: 13:38:04
(UTC+00:00)

Cosmos 1655 Rocket - Pass Details

Date: 06 August 2021
Orbit: 969 x 1007 km, 82.9° (Epoch: 25 September)

Event Time Altitude Azimuth Distance (km) Brightness Sun altitude
Exits shadow 19:02:46 - 139° (SE) 3,182 6.1 -5.8°
Reaches altitude 10° 19:04:07 10° 132° (SE) 2,775 5.7 -6.0°
Maximum altitude 19:09:00 24° 82° (E) 1,965 5.2 -6.6°
Drops below altitude 10° 19:13:54 10° 32° (NNE) 2,795 6.5 -7.3°
Sets 19:16:55 0° 19° (NNE) 3,749 7.3 -7.7°
